TimeEDT,TemperatureF,Dew PointF,Humidity,Sea Level PressureIn,VisibilityMPH,Wind Direction,Wind SpeedMPH,Gust SpeedMPH,PrecipitationIn,Events,Conditions,WindDirDegrees,DateUTC
12:15 AM,35.6,35.6,100,29.91,10.0,West,10.4,18.4,N/A,,Scattered Clouds,270,2013-10-20 04:15:00
12:35 AM,35.6,35.6,100,29.91,10.0,West,10.4,16.1,N/A,,Mostly Cloudy,270,2013-10-20 04:35:00
12:55 AM,35.6,35.6,100,29.91,10.0,West,13.8,21.9,N/A,,Overcast,270,2013-10-20 04:55:00
1:15 AM,35.6,35.6,100,29.92,10.0,WNW,16.1,21.9,N/A,,Overcast,290,2013-10-20 05:15:00
1:35 AM,35.6,35.6,100,29.92,10.0,West,13.8,19.6,N/A,,Overcast,270,2013-10-20 05:35:00
1:55 AM,35.6,35.6,100,29.92,10.0,West,15.0,23.0,N/A,,Overcast,270,2013-10-20 05:55:00
2:15 AM,35.6,35.6,100,29.93,10.0,West,12.7,18.4,N/A,,Overcast,280,2013-10-20 06:15:00
2:35 AM,35.6,35.6,100,29.93,10.0,West,11.5,19.6,N/A,,Overcast,270,2013-10-20 06:35:00
2:55 AM,33.8,33.8,100,29.93,10.0,West,11.5,19.6,N/A,,Mostly Cloudy,270,2013-10-20 06:55:00
3:15 AM,33.8,33.8,100,29.93,10.0,West,9.2,18.4,N/A,,Overcast,270,2013-10-20 07:15:00
3:35 AM,33.8,33.8,100,29.93,10.0,West,10.4,20.7,N/A,,Mostly Cloudy,270,2013-10-20 07:35:00
3:55 AM,33.8,33.8,100,29.93,10.0,West,10.4,20.7,N/A,,Mostly Cloudy,260,2013-10-20 07:55:00
4:20 AM,33.8,33.8,100,29.93,10.0,West,10.4,17.3,N/A,,Overcast,270,2013-10-20 08:20:00
4:40 AM,33.8,33.8,100,29.93,10.0,West,8.1,-,N/A,,Overcast,260,2013-10-20 08:40:00
5:00 AM,33.8,33.8,100,29.95,10.0,WSW,10.4,18.4,N/A,,Overcast,250,2013-10-20 09:00:00
5:20 AM,33.8,33.8,100,29.95,10.0,WSW,9.2,18.4,N/A,,Overcast,250,2013-10-20 09:20:00
5:40 AM,33.8,33.8,100,29.95,10.0,WSW,10.4,16.1,N/A,,Mostly Cloudy,250,2013-10-20 09:40:00
6:00 AM,33.8,33.8,100,29.96,10.0,West,9.2,-,N/A,,Scattered Clouds,260,2013-10-20 10:00:00
6:20 AM,33.8,33.8,100,29.96,10.0,WSW,11.5,17.3,N/A,,Scattered Clouds,240,2013-10-20 10:20:00
6:40 AM,33.8,33.8,100,29.96,10.0,West,10.4,17.3,N/A,,Scattered Clouds,260,2013-10-20 10:40:00
7:00 AM,33.8,33.8,100,29.97,10.0,WSW,10.4,18.4,N/A,,Scattered Clouds,250,2013-10-20 11:00:00
7:20 AM,33.8,33.8,100,29.96,10.0,WSW,9.2,17.3,N/A,,Scattered Clouds,250,2013-10-20 11:20:00
7:40 AM,33.8,33.8,100,29.97,10.0,WSW,8.1,16.1,N/A,,Clear,250,2013-10-20 11:40:00
8:00 AM,33.8,33.8,100,29.97,7.0,West,10.4,18.4,N/A,,Clear,260,2013-10-20 12:00:00
8:20 AM,33.8,33.8,100,29.98,10.0,WSW,11.5,18.4,N/A,,Clear,250,2013-10-20 12:20:00
8:40 AM,33.8,33.8,100,29.99,10.0,WSW,11.5,17.3,N/A,,Clear,250,2013-10-20 12:40:00
9:00 AM,35.6,35.6,100,29.99,10.0,WSW,12.7,17.3,N/A,,Clear,250,2013-10-20 13:00:00
9:20 AM,35.6,35.6,100,30.01,10.0,WSW,11.5,17.3,N/A,,Clear,250,2013-10-20 13:20:00
9:40 AM,37.4,35.6,93,30.01,10.0,West,11.5,17.3,N/A,,Clear,260,2013-10-20 13:40:00
10:00 AM,37.4,35.6,93,30.02,10.0,WSW,11.5,16.1,N/A,,Clear,250,2013-10-20 14:00:00
10:20 AM,39.2,33.8,81,30.02,10.0,WSW,9.2,-,N/A,,Clear,250,2013-10-20 14:20:00
10:40 AM,41.0,33.8,76,30.03,10.0,WSW,9.2,-,N/A,,Clear,250,2013-10-20 14:40:00
11:00 AM,41.0,32.0,70,30.03,10.0,West,8.1,16.1,N/A,,Scattered Clouds,260,2013-10-20 15:00:00
11:20 AM,42.8,32.0,66,30.04,10.0,WSW,8.1,16.1,N/A,,Scattered Clouds,250,2013-10-20 15:20:00
11:40 AM,44.6,32.0,61,30.04,10.0,WSW,8.1,-,N/A,,Mostly Cloudy,240,2013-10-20 15:40:00
12:00 PM,44.6,30.2,57,30.05,10.0,WSW,10.4,18.4,N/A,,Mostly Cloudy,250,2013-10-20 16:00:00
12:20 PM,44.6,28.4,53,30.05,10.0,West,13.8,19.6,N/A,,Scattered Clouds,260,2013-10-20 16:20:00
12:40 PM,46.4,26.6,46,30.05,10.0,WSW,11.5,20.7,N/A,,Mostly Cloudy,250,2013-10-20 16:40:00
1:00 PM,46.4,26.6,46,30.05,10.0,WSW,12.7,19.6,N/A,,Scattered Clouds,240,2013-10-20 17:00:00
1:20 PM,46.4,28.4,50,30.04,10.0,SW,6.9,17.3,N/A,,Clear,220,2013-10-20 17:20:00
1:40 PM,46.4,26.6,46,30.04,10.0,WSW,9.2,18.4,N/A,,Clear,250,2013-10-20 17:40:00
2:00 PM,46.4,26.6,46,30.04,10.0,WSW,9.2,-,N/A,,Clear,250,2013-10-20 18:00:00
2:20 PM,46.4,26.6,46,30.03,10.0,SW,10.4,18.4,N/A,,Clear,220,2013-10-20 18:20:00
2:40 PM,48.2,26.6,43,30.03,10.0,West,6.9,17.3,N/A,,Clear,260,2013-10-20 18:40:00
3:00 PM,50.0,26.6,40,30.02,10.0,SW,9.2,-,N/A,,Clear,230,2013-10-20 19:00:00
3:20 PM,48.2,24.8,40,30.03,10.0,WSW,10.4,17.3,N/A,,Clear,250,2013-10-20 19:20:00
3:40 PM,48.2,26.6,43,30.03,10.0,West,6.9,-,N/A,,Clear,270,2013-10-20 19:40:00
4:00 PM,50.0,24.8,37,30.02,10.0,SW,8.1,-,N/A,,Clear,220,2013-10-20 20:00:00
4:20 PM,50.0,23.0,35,30.03,10.0,SW,9.2,-,N/A,,Clear,230,2013-10-20 20:20:00
4:40 PM,50.0,23.0,35,30.03,10.0,West,8.1,-,N/A,,Clear,260,2013-10-20 20:40:00
5:00 PM,50.0,23.0,35,30.03,10.0,West,8.1,-,N/A,,Clear,260,2013-10-20 21:00:00
5:20 PM,48.2,23.0,37,30.04,10.0,West,9.2,-,N/A,,Clear,270,2013-10-20 21:20:00
5:40 PM,46.4,26.6,46,30.04,10.0,WSW,9.2,-,N/A,,Clear,240,2013-10-20 21:40:00
6:00 PM,46.4,24.8,43,30.04,10.0,WSW,6.9,-,N/A,,Clear,250,2013-10-20 22:00:00
6:20 PM,44.6,26.6,49,30.04,10.0,WSW,8.1,-,N/A,,Clear,240,2013-10-20 22:20:00
6:40 PM,42.8,28.4,57,30.05,10.0,WSW,5.8,-,N/A,,Clear,240,2013-10-20 22:40:00
7:00 PM,42.8,28.4,57,30.05,10.0,WSW,5.8,-,N/A,,Clear,240,2013-10-20 23:00:00
7:20 PM,42.8,28.4,57,30.06,10.0,WSW,6.9,-,N/A,,Clear,240,2013-10-20 23:20:00
7:40 PM,42.8,28.4,57,30.06,10.0,SW,5.8,-,N/A,,Clear,230,2013-10-20 23:40:00
8:00 PM,41.0,30.2,65,30.06,10.0,SW,5.8,-,N/A,,Clear,230,2013-10-21 00:00:00
8:20 PM,41.0,30.2,65,30.06,10.0,SW,6.9,-,N/A,,Clear,220,2013-10-21 00:20:00
8:40 PM,41.0,30.2,65,30.06,10.0,SW,6.9,-,N/A,,Clear,220,2013-10-21 00:40:00
9:00 PM,41.0,30.2,65,30.06,10.0,SSW,8.1,-,N/A,,Clear,210,2013-10-21 01:00:00
9:20 PM,41.0,30.2,65,30.07,10.0,SSW,9.2,-,N/A,,Clear,210,2013-10-21 01:20:00
9:40 PM,41.0,30.2,65,30.08,10.0,SSW,8.1,-,N/A,,Clear,210,2013-10-21 01:40:00
10:00 PM,41.0,30.2,65,30.08,10.0,SW,8.1,-,N/A,,Clear,220,2013-10-21 02:00:00
10:20 PM,41.0,30.2,65,30.08,10.0,SW,8.1,-,N/A,,Clear,220,2013-10-21 02:20:00
10:40 PM,41.0,30.2,65,30.08,10.0,SSW,9.2,-,N/A,,Clear,210,2013-10-21 02:40:00
11:00 PM,41.0,30.2,65,30.08,10.0,SW,9.2,-,N/A,,Clear,220,2013-10-21 03:00:00
11:20 PM,41.0,30.2,65,30.08,10.0,SSW,8.1,-,N/A,,Clear,210,2013-10-21 03:20:00
11:40 PM,41.0,30.2,65,30.08,10.0,SSW,9.2,-,N/A,,Clear,210,2013-10-21 03:40:00